Location: Asheville, NC
(35.6000°N, 82.5500°W)
Time: 16:00:48
(UTC-04:00)

Vanguard 1 Rocket - Pass Details

Date: 13 December 2017
Orbit: 653 x 4224 km, 34.3° (Epoch: 22 June)

Event Time Altitude Azimuth Distance (km) Brightness Sun altitude
Rises 22:11:09 0° 283° (WNW) 6,133 12.1 -58.6°
Reaches altitude 10° 22:14:30 10° 281° (W) 5,493 11.7 -59.2°
Enters shadow 22:27:18 56° 255° (WSW) 4,026 10.4 -61.7°
Maximum altitude 22:33:05 68° 204° (SSW) 4,055 - -62.8°
Drops below altitude 10° 22:59:08 10° 128° (SE) 7,276 - -67.7°
Sets 23:04:29 0° 125° (SE) 8,102 - -68.6°
